• In Czech Republic
  • List of Countries
  • For 7 days
  • Water Temperature
  • Satellite Maps
  • Weather Map
  • Weather Widgets
  • user-avatar
    Login

    Hourly Weather Kalgoorlie

    Today, 20 September, Wednesday

    Time Temperature Precipitation Wind Pressure Humidity
    00:00 +21°C° 0 mm 5 mps 728 mmHg 47%
    01:00 +20°C° 0 mm 5 mps 728 mmHg 54%
    02:00 +19°C° 0 mm 4 mps 727 mmHg 59%
    03:00 +19°C° 0 mm 4 mps 727 mmHg 64%
    04:00 +18°C° 0 mm 3 mps 728 mmHg 69%
    05:00 +17°C° 0 mm 2 mps 728 mmHg 73%
    06:00 +18°C° 0 mm 3 mps 728 mmHg 71%
    07:00 +19°C° 0 mm 3 mps 728 mmHg 68%
    08:00 +20°C° 0 mm 3 mps 728 mmHg 63%
    09:00 +21°C° 0 mm 4 mps 728 mmHg 56%
    10:00 +23°C° 0 mm 5 mps 728 mmHg 48%
    11:00 +24°C° 0 mm 6 mps 728 mmHg 41%
    12:00 +26°C° 0 mm 7 mps 728 mmHg 39%
    13:00 +26°C° 0 mm 8 mps 727 mmHg 38%
    14:00 +27°C° 0 mm 9 mps 727 mmHg 37%
    15:00 +26°C° 0 mm 8 mps 727 mmHg 39%
    16:00 +24°C° 0 mm 8 mps 727 mmHg 41%
    17:00 +24°C° 0 mm 8 mps 727 mmHg 43%
    18:00 +23°C° 0 mm 6 mps 727 mmHg 45%
    19:00 +22°C° 0 mm 5 mps 728 mmHg 47%
    20:00 +21°C° 0 mm 3 mps 728 mmHg 48%
    21:00 +21°C° 0 mm 3 mps 728 mmHg 50%
    22:00 +20°C° 0 mm 3 mps 728 mmHg 52%
    23:00 +19°C° 0 mm 4 mps 728 mmHg 55%

    Tomorrow, 21 September, Thursday

    Time Temperature Precipitation Wind Pressure Humidity
    00:00 +19°C° 0 mm 3 mps 728 mmHg 58%
    01:00 +18°C° 0 mm 3 mps 728 mmHg 62%
    02:00 +17°C° 0 mm 3 mps 727 mmHg 65%
    03:00 +17°C° 0 mm 3 mps 727 mmHg 67%
    04:00 +17°C° 0 mm 2 mps 727 mmHg 69%
    05:00 +16°C° 0 mm 2 mps 727 mmHg 70%
    06:00 +18°C° 0 mm 3 mps 727 mmHg 64%
    07:00 +19°C° 0 mm 4 mps 727 mmHg 58%
    08:00 +20°C° 0 mm 5 mps 727 mmHg 52%
    09:00 +22°C° 0 mm 6 mps 726 mmHg 45%
    10:00 +24°C° 0 mm 8 mps 726 mmHg 38%
    11:00 +27°C° 0 mm 9 mps 725 mmHg 30%
    12:00 +28°C° 0 mm 10 mps 725 mmHg 27%
    13:00 +31°C° 0 mm 11 mps 724 mmHg 24%
    14:00 +32°C° 0 mm 12 mps 723 mmHg 21%
    15:00 +31°C° 0 mm 12 mps 723 mmHg 21%
    16:00 +31°C° 0 mm 12 mps 722 mmHg 20%
    17:00 +31°C° 0 mm 12 mps 722 mmHg 20%
    18:00 +29°C° 0 mm 10 mps 722 mmHg 23%
    19:00 +27°C° 0 mm 9 mps 723 mmHg 27%
    20:00 +26°C° 0 mm 7 mps 723 mmHg 30%
    21:00 +23°C° 0 mm 7 mps 723 mmHg 39%
    22:00 +22°C° 0 mm 7 mps 723 mmHg 48%
    23:00 +21°C° 0 mm 7 mps 724 mmHg 56%

    Day after tomorrow, 22 September, Friday

    Time Temperature Precipitation Wind Pressure Humidity
    00:00 +20°C° 0 mm 6 mps 723 mmHg 62%
    01:00 +19°C° 0 mm 6 mps 723 mmHg 67%
    02:00 +17°C° 0 mm 5 mps 723 mmHg 72%
    03:00 +17°C° 0 mm 5 mps 723 mmHg 75%
    04:00 +16°C° 0 mm 5 mps 723 mmHg 77%
    05:00 +17°C° 0 mm 4 mps 723 mmHg 79%
    06:00 +17°C° 0.1 mm 6 mps 723 mmHg 74%
    07:00 +18°C° 0.1 mm 7 mps 723 mmHg 68%
    08:00 +18°C° 0.1 mm 9 mps 723 mmHg 62%
    09:00 +19°C° 0.1 mm 10 mps 723 mmHg 59%
    10:00 +19°C° 0.1 mm 11 mps 722 mmHg 55%
    11:00 +21°C° 0.1 mm 12 mps 722 mmHg 51%
    12:00 +20°C° 0 mm 13 mps 722 mmHg 49%
    13:00 +20°C° 0 mm 14 mps 721 mmHg 46%
    14:00 +20°C° 0 mm 15 mps 721 mmHg 43%
    15:00 +19°C° 0.1 mm 15 mps 721 mmHg 49%
    16:00 +18°C° 0.1 mm 15 mps 721 mmHg 54%
    17:00 +15°C° 0.1 mm 14 mps 722 mmHg 59%
    18:00 +15°C° 0.1 mm 12 mps 723 mmHg 57%
    19:00 +14°C° 0.1 mm 11 mps 723 mmHg 54%
    20:00 +15°C° 0.1 mm 9 mps 724 mmHg 52%
    21:00 +13°C° 0 mm 9 mps 724 mmHg 55%
    22:00 +13°C° 0 mm 10 mps 724 mmHg 58%
    23:00 +12°C° 0 mm 10 mps 724 mmHg 61%

    23 September, Saturday

    Time Temperature Precipitation Wind Pressure Humidity
    00:00 +12°C° 0 mm 10 mps 724 mmHg 65%
    01:00 +11°C° 0 mm 9 mps 725 mmHg 70%
    02:00 +11°C° 0 mm 9 mps 725 mmHg 74%
    03:00 +10°C° 0 mm 8 mps 725 mmHg 76%
    04:00 +10°C° 0 mm 7 mps 725 mmHg 78%
    05:00 +9°C° 0 mm 7 mps 725 mmHg 79%
    06:00 +10°C° 0 mm 8 mps 726 mmHg 74%
    07:00 +10°C° 0 mm 8 mps 726 mmHg 69%
    08:00 +11°C° 0 mm 9 mps 727 mmHg 64%
    09:00 +11°C° 0 mm 9 mps 727 mmHg 61%
    10:00 +12°C° 0 mm 9 mps 727 mmHg 57%
    11:00 +12°C° 0 mm 9 mps 727 mmHg 53%
    12:00 +13°C° 0 mm 9 mps 727 mmHg 47%
    13:00 +16°C° 0 mm 9 mps 726 mmHg 41%
    14:00 +18°C° 0 mm 9 mps 726 mmHg 35%
    15:00 +17°C° 0 mm 8 mps 726 mmHg 35%
    16:00 +17°C° 0 mm 8 mps 726 mmHg 35%
    17:00 +17°C° 0 mm 8 mps 726 mmHg 35%
    18:00 +16°C° 0 mm 7 mps 726 mmHg 40%
    19:00 +14°C° 0 mm 5 mps 727 mmHg 44%
    20:00 +13°C° 0 mm 4 mps 727 mmHg 49%
    21:00 +12°C° 0 mm 4 mps 727 mmHg 51%
    22:00 +12°C° 0 mm 3 mps 726 mmHg 54%
    23:00 +12°C° 0 mm 2 mps 726 mmHg 56%

    24 September, Sunday

    Time Temperature Precipitation Wind Pressure Humidity
    00:00 +12°C° 0 mm 2 mps 725 mmHg 58%
    01:00 +12°C° 0 mm 2 mps 725 mmHg 59%
    02:00 +10°C° 0 mm 2 mps 724 mmHg 61%
    03:00 +12°C° 0 mm 2 mps 724 mmHg 60%
    04:00 +11°C° 0 mm 3 mps 724 mmHg 58%
    05:00 +11°C° 0 mm 3 mps 724 mmHg 57%
    06:00 +12°C° 0 mm 5 mps 724 mmHg 54%
    07:00 +14°C° 0 mm 7 mps 724 mmHg 52%
    08:00 +15°C° 0 mm 8 mps 724 mmHg 49%
    09:00 +15°C° 0.3 mm 9 mps 724 mmHg 52%
    10:00 +13°C° 0.3 mm 9 mps 723 mmHg 55%
    11:00 +13°C° 0.3 mm 9 mps 723 mmHg 58%
    12:00 +16°C° 0 mm 9 mps 722 mmHg 51%
    13:00 +17°C° 0 mm 9 mps 722 mmHg 44%
    14:00 +19°C° 0 mm 10 mps 721 mmHg 36%
    15:00 +18°C° 0 mm 9 mps 721 mmHg 38%
    16:00 +18°C° 0 mm 9 mps 721 mmHg 40%
    17:00 +17°C° 0 mm 8 mps 721 mmHg 41%
    18:00 +16°C° 0 mm 7 mps 722 mmHg 46%
    19:00 +15°C° 0 mm 6 mps 722 mmHg 51%
    20:00 +14°C° 0 mm 5 mps 722 mmHg 56%
    21:00 +13°C° 0 mm 4 mps 722 mmHg 57%
    22:00 +13°C° 0 mm 4 mps 722 mmHg 59%
    23:00 +12°C° 0 mm 4 mps 722 mmHg 60%

    25 September, Monday

    Time Temperature Precipitation Wind Pressure Humidity
    00:00 +12°C° 0 mm 3 mps 721 mmHg 62%
    01:00 +11°C° 0 mm 3 mps 721 mmHg 65%
    02:00 +10°C° 0 mm 2 mps 720 mmHg 67%
    03:00 +10°C° 0 mm 2 mps 720 mmHg 68%
    04:00 +10°C° 0 mm 2 mps 720 mmHg 68%
    05:00 +10°C° 0 mm 3 mps 720 mmHg 69%
    06:00 +10°C° 0 mm 5 mps 720 mmHg 63%
    07:00 +12°C° 0 mm 7 mps 720 mmHg 56%
    08:00 +13°C° 0 mm 10 mps 720 mmHg 49%
    09:00 +13°C° 0.6 mm 10 mps 719 mmHg 52%
    10:00 +13°C° 0.6 mm 11 mps 719 mmHg 56%
    11:00 +13°C° 0.6 mm 11 mps 719 mmHg 59%
    12:00 +13°C° 0.4 mm 10 mps 718 mmHg 56%
    13:00 +13°C° 0.4 mm 9 mps 718 mmHg 53%
    14:00 +15°C° 0.4 mm 8 mps 717 mmHg 50%
    15:00 +12°C° 1.1 mm 8 mps 717 mmHg 58%
    16:00 +11°C° 1.1 mm 8 mps 717 mmHg 65%
    17:00 +10°C° 1.1 mm 8 mps 717 mmHg 72%
    18:00 +10°C° 0 mm 7 mps 718 mmHg 70%
    19:00 +9°C° 0 mm 6 mps 719 mmHg 68%
    20:00 +9°C° 0 mm 5 mps 719 mmHg 65%
    21:00 +9°C° 0 mm 5 mps 719 mmHg 65%
    22:00 +9°C° 0 mm 5 mps 719 mmHg 65%
    23:00 +9°C° 0 mm 5 mps 719 mmHg 64%
    Show more